When you browse on this site, cookies collect data to enhance your experience and personalize the content and advertising you see.
Visit our Privacy Policy to learn more. By continuing to use the site, you agree to this use of cookies and data.
  • In Schweiz
  • Länderverzeichnis
  • Für 7 Tage
  • Wassertemperatur
  • Wetterkarte
  • Widgets
  • user-avatar
    Anmelden

    Stündliche Wetter Dinagepoor

    Heute, 26 Februar, Mittwoch

    Zeit Temperatur Niederschläge Wind Luftdruck Luftfeuchtigkeit
    00:00 +21°C° 0 mm 2 m/S 758 mmHg 67%
    01:00 +20°C° 0.4 mm 2 m/S 758 mmHg 69%
    02:00 +20°C° 0.4 mm 2 m/S 758 mmHg 70%
    03:00 +20°C° 0.4 mm 2 m/S 758 mmHg 71%
    04:00 +20°C° 0.4 mm 2 m/S 758 mmHg 73%
    05:00 +19°C° 0.4 mm 3 m/S 758 mmHg 75%
    06:00 +19°C° 0 mm 4 m/S 758 mmHg 85%
    07:00 +20°C° 0.1 mm 5 m/S 758 mmHg 79%
    08:00 +21°C° 0.1 mm 5 m/S 759 mmHg 72%
    09:00 +22°C° 0.1 mm 5 m/S 759 mmHg 66%
    10:00 +23°C° 0.1 mm 5 m/S 759 mmHg 61%
    11:00 +25°C° 0.1 mm 5 m/S 759 mmHg 57%
    12:00 +26°C° 0.1 mm 5 m/S 758 mmHg 52%
    13:00 +25°C° 1.8 mm 4 m/S 758 mmHg 56%
    14:00 +23°C° 1.8 mm 4 m/S 757 mmHg 60%
    15:00 +22°C° 1.8 mm 4 m/S 756 mmHg 63%
    16:00 +22°C° 0.2 mm 3 m/S 756 mmHg 64%
    17:00 +23°C° 0.2 mm 2 m/S 756 mmHg 64%
    18:00 +23°C° 0.2 mm 2 m/S 756 mmHg 64%
    19:00 +21°C° 0 mm 2 m/S 757 mmHg 67%
    20:00 +21°C° 0 mm 2 m/S 757 mmHg 69%
    21:00 +20°C° 0 mm 2 m/S 758 mmHg 72%
    22:00 +21°C° 0 mm 1 m/S 758 mmHg 73%
    23:00 +20°C° 0 mm 1 m/S 758 mmHg 74%

    Morgen, 27 Februar, Donnerstag

    Zeit Temperatur Niederschläge Wind Luftdruck Luftfeuchtigkeit
    00:00 +20°C° 0 mm 1 m/S 758 mmHg 75%
    01:00 +20°C° 0 mm 1 m/S 757 mmHg 75%
    02:00 +20°C° 0 mm 1 m/S 757 mmHg 76%
    03:00 +19°C° 0 mm 1 m/S 757 mmHg 76%
    04:00 +19°C° 0 mm 1 m/S 757 mmHg 77%
    05:00 +19°C° 0 mm 1 m/S 757 mmHg 78%
    06:00 +18°C° 0 mm 1 m/S 757 mmHg 80%
    07:00 +20°C° 0 mm 1 m/S 758 mmHg 75%
    08:00 +21°C° 0 mm 1 m/S 758 mmHg 70%
    09:00 +22°C° 0 mm 1 m/S 759 mmHg 66%
    10:00 +24°C° 0 mm 1 m/S 759 mmHg 59%
    11:00 +26°C° 0 mm 1 m/S 759 mmHg 52%
    12:00 +25°C° 0 mm 0 m/S 758 mmHg 45%
    13:00 +28°C° 0 mm 1 m/S 758 mmHg 42%
    14:00 +28°C° 0 mm 1 m/S 757 mmHg 39%
    15:00 +29°C° 0 mm 1 m/S 756 mmHg 36%
    16:00 +28°C° 0 mm 1 m/S 756 mmHg 38%
    17:00 +27°C° 0 mm 1 m/S 756 mmHg 40%
    18:00 +27°C° 0 mm 1 m/S 756 mmHg 42%
    19:00 +26°C° 0 mm 1 m/S 756 mmHg 44%
    20:00 +25°C° 0 mm 1 m/S 757 mmHg 46%
    21:00 +25°C° 0 mm 1 m/S 758 mmHg 47%
    22:00 +24°C° 0 mm 1 m/S 758 mmHg 49%
    23:00 +24°C° 0 mm 1 m/S 757 mmHg 51%

    übermorgen, 28 Februar, Freitag

    Zeit Temperatur Niederschläge Wind Luftdruck Luftfeuchtigkeit
    00:00 +23°C° 0 mm 1 m/S 757 mmHg 52%
    01:00 +23°C° 0 mm 2 m/S 757 mmHg 55%
    02:00 +21°C° 0 mm 2 m/S 757 mmHg 57%
    03:00 +21°C° 0 mm 2 m/S 756 mmHg 59%
    04:00 +21°C° 0 mm 2 m/S 756 mmHg 61%
    05:00 +20°C° 0 mm 2 m/S 757 mmHg 64%
    06:00 +20°C° 0 mm 2 m/S 757 mmHg 66%
    07:00 +21°C° 0 mm 2 m/S 757 mmHg 64%
    08:00 +22°C° 0 mm 3 m/S 758 mmHg 63%
    09:00 +23°C° 0 mm 4 m/S 758 mmHg 61%
    10:00 +26°C° 0 mm 3 m/S 758 mmHg 53%
    11:00 +27°C° 0 mm 3 m/S 758 mmHg 46%
    12:00 +29°C° 0 mm 2 m/S 757 mmHg 39%
    13:00 +30°C° 0 mm 2 m/S 757 mmHg 37%
    14:00 +30°C° 0 mm 1 m/S 756 mmHg 34%
    15:00 +31°C° 0 mm 1 m/S 755 mmHg 32%
    16:00 +30°C° 0 mm 1 m/S 755 mmHg 34%
    17:00 +29°C° 0 mm 2 m/S 755 mmHg 37%
    18:00 +28°C° 0 mm 2 m/S 755 mmHg 39%
    19:00 +27°C° 0 mm 2 m/S 755 mmHg 41%
    20:00 +27°C° 0 mm 2 m/S 755 mmHg 43%
    21:00 +26°C° 0 mm 2 m/S 756 mmHg 45%
    22:00 +25°C° 0 mm 2 m/S 756 mmHg 47%
    23:00 +25°C° 0 mm 2 m/S 756 mmHg 49%

    29 Februar, Samstag

    Zeit Temperatur Niederschläge Wind Luftdruck Luftfeuchtigkeit
    00:00 +24°C° 0 mm 2 m/S 756 mmHg 51%
    01:00 +24°C° 0 mm 2 m/S 755 mmHg 52%
    02:00 +23°C° 0 mm 2 m/S 755 mmHg 54%
    03:00 +23°C° 0 mm 2 m/S 754 mmHg 55%
    04:00 +23°C° 0 mm 2 m/S 754 mmHg 57%
    05:00 +21°C° 0 mm 2 m/S 754 mmHg 59%
    06:00 +22°C° 0 mm 1 m/S 754 mmHg 60%
    07:00 +23°C° 0 mm 2 m/S 755 mmHg 55%
    08:00 +25°C° 0 mm 2 m/S 756 mmHg 50%
    09:00 +27°C° 0 mm 2 m/S 756 mmHg 45%
    10:00 +28°C° 0 mm 2 m/S 756 mmHg 41%
    11:00 +30°C° 0 mm 1 m/S 756 mmHg 36%
    12:00 +31°C° 0 mm 1 m/S 756 mmHg 32%
    13:00 +31°C° 0 mm 1 m/S 755 mmHg 30%
    14:00 +32°C° 0 mm 2 m/S 754 mmHg 29%
    15:00 +32°C° 0 mm 2 m/S 754 mmHg 27%
    16:00 +31°C° 0 mm 2 m/S 753 mmHg 29%
    17:00 +30°C° 0 mm 2 m/S 753 mmHg 32%
    18:00 +29°C° 0 mm 2 m/S 753 mmHg 35%
    19:00 +28°C° 0 mm 1 m/S 754 mmHg 36%
    20:00 +28°C° 0 mm 1 m/S 754 mmHg 37%
    21:00 +27°C° 0 mm 1 m/S 755 mmHg 39%
    22:00 +26°C° 0 mm 1 m/S 755 mmHg 40%
    23:00 +26°C° 0 mm 1 m/S 755 mmHg 41%

    1 März, Sonntag

    Zeit Temperatur Niederschläge Wind Luftdruck Luftfeuchtigkeit
    00:00 +25°C° 0 mm 1 m/S 755 mmHg 43%
    01:00 +25°C° 0 mm 1 m/S 755 mmHg 43%
    02:00 +25°C° 0 mm 1 m/S 754 mmHg 44%
    03:00 +24°C° 0 mm 1 m/S 754 mmHg 45%
    04:00 +24°C° 0 mm 1 m/S 754 mmHg 46%
    05:00 +23°C° 0 mm 1 m/S 754 mmHg 47%
    06:00 +23°C° 0 mm 1 m/S 754 mmHg 48%
    07:00 +24°C° 0 mm 1 m/S 755 mmHg 45%
    08:00 +26°C° 0 mm 1 m/S 756 mmHg 41%
    09:00 +27°C° 0 mm 1 m/S 756 mmHg 37%
    10:00 +29°C° 0 mm 1 m/S 756 mmHg 34%
    11:00 +30°C° 0 mm 1 m/S 756 mmHg 31%
    12:00 +32°C° 0 mm 1 m/S 755 mmHg 28%
    13:00 +33°C° 0 mm 1 m/S 754 mmHg 27%
    14:00 +34°C° 0 mm 2 m/S 754 mmHg 26%
    15:00 +34°C° 0 mm 2 m/S 753 mmHg 24%
    16:00 +34°C° 0 mm 2 m/S 753 mmHg 27%
    17:00 +32°C° 0 mm 2 m/S 752 mmHg 30%
    18:00 +31°C° 0 mm 2 m/S 752 mmHg 32%
    19:00 +30°C° 0 mm 2 m/S 753 mmHg 33%
    20:00 +29°C° 0 mm 1 m/S 753 mmHg 34%
    21:00 +28°C° 0 mm 1 m/S 754 mmHg 35%
    22:00 +28°C° 0 mm 1 m/S 754 mmHg 37%
    23:00 +27°C° 0 mm 1 m/S 754 mmHg 38%

    2 März, Montag

    Zeit Temperatur Niederschläge Wind Luftdruck Luftfeuchtigkeit
    00:00 +27°C° 0 mm 1 m/S 754 mmHg 39%
    01:00 +26°C° 0 mm 1 m/S 754 mmHg 40%
    02:00 +26°C° 0 mm 1 m/S 753 mmHg 42%
    03:00 +25°C° 0 mm 1 m/S 753 mmHg 44%
    04:00 +24°C° 0 mm 1 m/S 753 mmHg 45%
    05:00 +24°C° 0 mm 1 m/S 753 mmHg 47%
    06:00 +23°C° 0 mm 1 m/S 754 mmHg 48%
    07:00 +25°C° 0 mm 1 m/S 754 mmHg 44%
    08:00 +27°C° 0 mm 1 m/S 755 mmHg 41%
    09:00 +27°C° 0 mm 0 m/S 755 mmHg 37%
    10:00 +28°C° 0 mm 0 m/S 755 mmHg 33%
    11:00 +30°C° 0 mm 0 m/S 755 mmHg 30%
    12:00 +32°C° 0 mm 0 m/S 754 mmHg 26%
    13:00 +34°C° 0 mm 1 m/S 754 mmHg 25%
    14:00 +36°C° 0 mm 2 m/S 753 mmHg 24%
    15:00 +36°C° 0 mm 3 m/S 752 mmHg 23%
    16:00 +35°C° 0 mm 2 m/S 752 mmHg 26%
    17:00 +34°C° 0 mm 2 m/S 752 mmHg 28%
    18:00 +32°C° 0 mm 2 m/S 751 mmHg 31%
    19:00 +31°C° 0 mm 2 m/S 752 mmHg 32%
    20:00 +30°C° 0 mm 2 m/S 752 mmHg 33%
    21:00 +29°C° 0 mm 1 m/S 753 mmHg 34%
    22:00 +28°C° 0.1 mm 2 m/S 753 mmHg 38%
    23:00 +27°C° 0.1 mm 2 m/S 753 mmHg 42%
    Mehr zeigen